Time,TemperatureF,DewpointF,PressureIn,WindDirection,WindDirectionDegrees,WindSpeedMPH,WindSpeedGustMPH,Humidity,HourlyPrecipIn,Conditions,Clouds,dailyrainin,SoftwareType,DateUTC
2013-05-23 00:02:00,59.6,56.0,29.74,WSW,240,1.9,4.6,88,0.00,RA,,0.00,WeatherDisplay:10.37,2013-05-23 05:02:00,
2013-05-23 00:07:00,59.5,56.3,29.74,WSW,242,4.5,8.1,89,0.00,RA,,0.00,WeatherDisplay:10.37,2013-05-23 05:07:00,
2013-05-23 00:12:00,59.5,56.3,29.74,SW,217,3.8,9.2,89,0.00,CLR,,0.00,WeatherDisplay:10.37,2013-05-23 05:12:00,
2013-05-23 00:17:00,59.4,56.2,29.74,SW,223,4.4,8.1,89,0.00,CLR,,0.00,WeatherDisplay:10.37,2013-05-23 05:17:00,
2013-05-23 00:22:00,59.5,56.3,29.74,SW,224,2.9,5.8,89,0.00,CLR,,0.00,WeatherDisplay:10.37,2013-05-23 05:22:00,
2013-05-23 00:27:00,59.4,56.2,29.74,WSW,238,1.5,4.6,89,0.00,CLR,,0.00,WeatherDisplay:10.37,2013-05-23 05:27:00,
2013-05-23 00:32:00,59.4,56.2,29.74,WSW,248,3.6,8.1,89,0.00,CLR,,0.00,WeatherDisplay:10.37,2013-05-23 05:32:00,
2013-05-23 00:38:00,59.3,56.1,29.74,SW,227,4.3,8.1,89,0.00,CLR,,0.00,WeatherDisplay:10.37,2013-05-23 05:38:00,
2013-05-23 00:43:00,59.1,56.2,29.74,SW,219,3.0,6.0,90,0.00,CLR,,0.00,WeatherDisplay:10.37,2013-05-23 05:43:00,
2013-05-23 00:48:00,59.0,56.1,29.74,SW,227,4.7,5.8,90,0.00,CLR,,0.00,WeatherDisplay:10.37,2013-05-23 05:48:00,
2013-05-23 00:53:00,58.9,56.3,29.74,SW,228,2.6,4.6,91,0.00,CLR,,0.00,WeatherDisplay:10.37,2013-05-23 05:53:00,
2013-05-23 00:58:00,59.0,56.4,29.74,SW,228,3.6,5.8,91,0.00,CLR,,0.00,WeatherDisplay:10.37,2013-05-23 05:58:00,
2013-05-23 01:03:00,58.9,56.3,29.74,SW,226,3.4,6.9,91,0.00,CLR,,0.00,WeatherDisplay:10.37,2013-05-23 06:03:00,
2013-05-23 01:08:00,58.9,56.3,29.74,SW,223,3.9,4.6,91,0.00,CLR,,0.00,WeatherDisplay:10.37,2013-05-23 06:08:00,
2013-05-23 01:13:00,58.9,56.6,29.75,SW,229,2.6,4.6,92,0.00,CLR,,0.00,WeatherDisplay:10.37,2013-05-23 06:13:00,
2013-05-23 01:18:00,58.9,56.6,29.74,WSW,238,4.0,6.9,92,0.00,CLR,,0.00,WeatherDisplay:10.37,2013-05-23 06:18:00,
2013-05-23 01:23:00,58.8,56.5,29.74,WSW,238,5.7,9.2,92,0.00,CLR,,0.00,WeatherDisplay:10.37,2013-05-23 06:23:00,
2013-05-23 01:28:00,58.8,56.2,29.74,SW,219,3.8,6.9,91,0.00,CLR,,0.00,WeatherDisplay:10.37,2013-05-23 06:28:00,
2013-05-23 01:33:00,58.8,56.2,29.74,SW,224,4.9,8.1,91,0.00,CLR,,0.00,WeatherDisplay:10.37,2013-05-23 06:33:00,
2013-05-23 01:38:00,58.7,56.1,29.74,SW,221,3.9,7.0,91,0.00,CLR,,0.00,WeatherDisplay:10.37,2013-05-23 06:38:00,
2013-05-23 01:43:00,58.6,56.0,29.74,SW,234,3.5,5.8,91,0.00,CLR,,0.00,WeatherDisplay:10.37,2013-05-23 06:43:00,
2013-05-23 01:48:00,58.6,56.0,29.74,WSW,237,5.5,11.5,91,0.00,CLR,,0.00,WeatherDisplay:10.37,2013-05-23 06:48:00,
2013-05-23 01:53:00,58.6,56.0,29.74,WSW,240,2.0,4.6,91,0.00,CLR,,0.00,WeatherDisplay:10.37,2013-05-23 06:53:00,
2013-05-23 01:58:00,58.6,56.0,29.74,WSW,237,2.0,4.6,91,0.00,CLR,,0.00,WeatherDisplay:10.37,2013-05-23 06:58:00,
2013-05-23 02:03:00,58.5,55.6,29.74,SW,225,2.1,6.0,90,0.00,CLR,,0.00,WeatherDisplay:10.37,2013-05-23 07:03:00,
2013-05-23 02:08:00,58.5,55.6,29.75,WSW,247,1.0,3.5,90,0.00,CLR,,0.00,WeatherDisplay:10.37,2013-05-23 07:08:00,
2013-05-23 02:13:00,58.5,55.6,29.75,WSW,245,1.9,4.6,90,0.00,CLR,,0.00,WeatherDisplay:10.37,2013-05-23 07:13:00,
2013-05-23 02:18:00,58.5,55.6,29.75,WSW,242,1.2,3.5,90,0.00,CLR,,0.00,WeatherDisplay:10.37,2013-05-23 07:18:00,
2013-05-23 02:23:00,58.5,55.6,29.75,WSW,242,0.5,2.3,90,0.00,CLR,,0.00,WeatherDisplay:10.37,2013-05-23 07:23:00,
2013-05-23 02:28:00,58.5,55.6,29.75,WSW,244,1.9,5.8,90,0.00,CLR,,0.00,WeatherDisplay:10.37,2013-05-23 07:28:00,
2013-05-23 02:33:00,58.4,55.5,29.75,WSW,246,0.2,5.0,90,0.00,CLR,,0.00,WeatherDisplay:10.37,2013-05-23 07:33:00,
2013-05-23 02:38:00,58.4,55.5,29.75,WSW,244,3.0,5.0,90,0.00,CLR,,0.00,WeatherDisplay:10.37,2013-05-23 07:38:00,
2013-05-23 02:43:00,58.3,55.4,29.75,West,259,3.8,6.9,90,0.00,CLR,,0.00,WeatherDisplay:10.37,2013-05-23 07:43:00,
2013-05-23 02:48:00,58.2,55.3,29.75,WSW,248,2.1,4.6,90,0.00,CLR,,0.00,WeatherDisplay:10.37,2013-05-23 07:48:00,
2013-05-23 02:53:00,58.1,55.2,29.75,SW,230,2.9,4.6,90,0.00,CLR,,0.00,WeatherDisplay:10.37,2013-05-23 07:53:00,
2013-05-23 02:58:00,58.1,55.5,29.75,SW,234,1.6,4.6,91,0.00,CLR,,0.00,WeatherDisplay:10.37,2013-05-23 07:58:00,
2013-05-23 03:03:00,58.1,55.5,29.75,WSW,254,2.6,5.0,91,0.00,CLR,,0.00,WeatherDisplay:10.37,2013-05-23 08:03:00,
2013-05-23 03:08:00,58.0,55.4,29.75,WSW,256,0.6,6.9,91,0.00,CLR,,0.00,WeatherDisplay:10.37,2013-05-23 08:08:00,
2013-05-23 03:13:00,58.0,55.4,29.75,SW,225,2.3,3.5,91,0.00,CLR,,0.00,WeatherDisplay:10.37,2013-05-23 08:13:00,
2013-05-23 03:18:00,57.9,55.6,29.75,WSW,249,4.4,6.9,92,0.00,CLR,,0.00,WeatherDisplay:10.37,2013-05-23 08:18:00,
2013-05-23 03:23:00,57.5,55.2,29.75,WSW,250,2.7,9.2,92,0.00,CLR,,0.00,WeatherDisplay:10.37,2013-05-23 08:23:00,
2013-05-23 03:28:00,57.3,55.0,29.75,SW,233,3.0,5.8,92,0.00,CLR,,0.00,WeatherDisplay:10.37,2013-05-23 08:28:00,
2013-05-23 03:33:00,57.1,55.1,29.76,WSW,238,2.8,6.9,93,0.00,CLR,,0.00,WeatherDisplay:10.37,2013-05-23 08:33:00,
2013-05-23 03:38:00,57.1,55.1,29.76,WSW,244,4.3,5.8,93,0.00,CLR,,0.00,WeatherDisplay:10.37,2013-05-23 08:38:00,
2013-05-23 03:43:00,57.1,55.1,29.76,WSW,252,3.4,5.8,93,0.00,CLR,,0.00,WeatherDisplay:10.37,2013-05-23 08:43:00,
2013-05-23 03:48:00,57.1,55.4,29.76,SW,215,4.0,6.9,94,0.00,CLR,,0.00,WeatherDisplay:10.37,2013-05-23 08:48:00,
2013-05-23 03:53:00,57.1,55.4,29.76,SW,235,2.7,5.8,94,0.00,CLR,,0.00,WeatherDisplay:10.37,2013-05-23 08:53:00,
2013-05-23 03:58:00,57.2,55.5,29.76,WSW,242,2.1,3.5,94,0.00,CLR,,0.00,WeatherDisplay:10.37,2013-05-23 08:58:00,
2013-05-23 04:03:00,57.1,55.4,29.77,WSW,237,4.1,4.6,94,0.00,CLR,,0.00,WeatherDisplay:10.37,2013-05-23 09:03:00,
2013-05-23 04:08:00,57.1,55.4,29.76,SW,226,4.4,5.8,94,0.00,CLR,,0.00,WeatherDisplay:10.37,2013-05-23 09:08:00,
2013-05-23 04:13:00,57.1,55.4,29.77,WSW,241,2.2,4.6,94,0.00,CLR,,0.00,WeatherDisplay:10.37,2013-05-23 09:13:00,
2013-05-23 04:18:00,57.2,55.5,29.77,SSW,208,1.4,6.9,94,0.00,CLR,,0.00,WeatherDisplay:10.37,2013-05-23 09:18:00,
2013-05-23 04:23:00,57.2,55.5,29.77,WSW,252,1.5,5.8,94,0.00,CLR,,0.00,WeatherDisplay:10.37,2013-05-23 09:23:00,
2013-05-23 04:28:00,57.2,55.5,29.77,SW,225,3.6,6.9,94,0.00,CLR,,0.00,WeatherDisplay:10.37,2013-05-23 09:28:00,
2013-05-23 04:33:00,57.2,55.5,29.77,SW,229,3.0,4.6,94,0.00,CLR,,0.00,WeatherDisplay:10.37,2013-05-23 09:33:00,
2013-05-23 04:38:00,57.2,55.5,29.78,SW,229,2.9,5.0,94,0.00,CLR,,0.00,WeatherDisplay:10.37,2013-05-23 09:38:00,
2013-05-23 04:43:00,57.1,55.4,29.78,SSW,213,1.3,3.5,94,0.00,CLR,,0.00,WeatherDisplay:10.37,2013-05-23 09:43:00,
2013-05-23 04:48:00,57.1,55.4,29.78,SSW,213,1.1,3.5,94,0.00,CLR,,0.00,WeatherDisplay:10.37,2013-05-23 09:48:00,
2013-05-23 04:53:00,57.0,55.3,29.78,SW,231,4.0,8.1,94,0.00,CLR,,0.00,WeatherDisplay:10.37,2013-05-23 09:53:00,
2013-05-23 04:58:00,56.9,55.2,29.78,SW,227,2.3,8.1,94,0.00,CLR,,0.00,WeatherDisplay:10.37,2013-05-23 09:58:00,
2013-05-23 05:03:00,56.8,55.4,29.78,SW,233,3.6,5.8,95,0.00,CLR,,0.00,WeatherDisplay:10.37,2013-05-23 10:03:00,
2013-05-23 05:08:00,56.8,55.4,29.79,WSW,238,1.8,4.6,95,0.00,CLR,,0.00,WeatherDisplay:10.37,2013-05-23 10:08:00,
2013-05-23 05:14:00,56.7,55.3,29.79,SW,234,4.1,6.9,95,0.00,CLR,,0.00,WeatherDisplay:10.37,2013-05-23 10:14:00,
2013-05-23 05:19:00,56.8,55.4,29.79,WSW,241,0.8,3.5,95,0.00,CLR,,0.00,WeatherDisplay:10.37,2013-05-23 10:19:00,
2013-05-23 05:24:00,56.8,55.4,29.80,WSW,241,1.1,2.3,95,0.00,CLR,,0.00,WeatherDisplay:10.37,2013-05-23 10:24:00,
2013-05-23 05:29:00,56.8,55.4,29.80,WSW,241,0.5,2.3,95,0.00,CLR,,0.00,WeatherDisplay:10.37,2013-05-23 10:29:00,
2013-05-23 05:34:00,56.7,55.6,29.80,WSW,256,0.0,1.2,96,0.00,CLR,,0.00,WeatherDisplay:10.37,2013-05-23 10:34:00,
2013-05-23 05:39:00,56.8,55.7,29.80,West,263,0.0,1.0,96,0.00,CLR,,0.00,WeatherDisplay:10.37,2013-05-23 10:39:00,
2013-05-23 05:44:00,56.7,55.6,29.81,WNW,302,1.0,2.3,96,0.01,RA,,0.01,WeatherDisplay:10.37,2013-05-23 10:44:00,
2013-05-23 05:49:00,56.2,54.8,29.81,North,355,10.1,15.0,95,0.02,RA,,0.02,WeatherDisplay:10.37,2013-05-23 10:49:00,
2013-05-23 05:54:00,55.3,53.9,29.82,North,355,9.1,15.0,95,0.02,RA,,0.02,WeatherDisplay:10.37,2013-05-23 10:54:00,
2013-05-23 05:59:00,54.9,53.5,29.82,North,360,9.8,11.5,95,0.02,CLR,,0.02,WeatherDisplay:10.37,2013-05-23 10:59:00,
2013-05-23 06:04:00,54.7,53.6,29.82,North,355,7.7,12.7,96,0.02,CLR,,0.03,WeatherDisplay:10.37,2013-05-23 11:04:00,
2013-05-23 06:09:00,54.5,53.1,29.83,North,355,8.1,15.0,95,0.03,RA,,0.03,WeatherDisplay:10.37,2013-05-23 11:09:00,
2013-05-23 06:14:00,54.3,52.9,29.83,North,9,8.8,12.0,95,0.03,RA,,0.03,WeatherDisplay:10.37,2013-05-23 11:14:00,
2013-05-23 06:19:00,54.2,53.1,29.83,North,9,10.2,12.7,96,0.03,CLR,,0.03,WeatherDisplay:10.37,2013-05-23 11:19:00,
2013-05-23 06:24:00,54.3,53.2,29.84,NNE,12,9.3,11.5,96,0.03,CLR,,0.03,WeatherDisplay:10.37,2013-05-23 11:24:00,
2013-05-23 06:29:00,54.2,53.1,29.84,North,355,10.1,12.7,96,0.03,CLR,,0.03,WeatherDisplay:10.37,2013-05-23 11:29:00,
2013-05-23 06:34:00,54.1,53.0,29.85,NNW,347,8.3,12.7,96,0.03,CLR,,0.03,WeatherDisplay:10.37,2013-05-23 11:34:00,
2013-05-23 06:39:00,54.0,52.6,29.85,North,355,8.7,9.2,95,0.04,RA,,0.04,WeatherDisplay:10.37,2013-05-23 11:39:00,
2013-05-23 06:44:00,53.9,52.8,29.85,North,355,7.7,10.4,96,0.04,RA,,0.05,WeatherDisplay:10.37,2013-05-23 11:44:00,
2013-05-23 06:49:00,53.9,52.8,29.85,NNW,345,6.6,10.4,96,0.03,RA,,0.05,WeatherDisplay:10.37,2013-05-23 11:49:00,
2013-05-23 06:54:00,53.9,52.8,29.85,North,360,6.5,8.1,96,0.03,,,0.05,WeatherDisplay:10.37,2013-05-23 11:54:00,
2013-05-23 06:59:00,53.9,52.8,29.86,North,355,8.1,11.5,96,0.03,CLR,,0.05,WeatherDisplay:10.37,2013-05-23 11:59:00,
2013-05-23 07:04:00,54.0,52.9,29.86,NNW,348,8.2,11.5,96,0.03,CLR,,0.05,WeatherDisplay:10.37,2013-05-23 12:04:00,
2013-05-23 07:09:00,54.1,53.0,29.87,NNE,27,7.5,10.4,96,0.03,RA,,0.06,WeatherDisplay:10.37,2013-05-23 12:09:00,
2013-05-23 07:14:00,54.1,53.0,29.87,North,5,7.4,12.7,96,0.03,RA,,0.06,WeatherDisplay:10.37,2013-05-23 12:14:00,
2013-05-23 07:19:00,54.2,53.1,29.87,NNW,340,9.8,12.7,96,0.03,,,0.06,WeatherDisplay:10.37,2013-05-23 12:19:00,
2013-05-23 07:24:00,54.2,53.1,29.88,NNW,344,8.0,11.5,96,0.03,CLR,,0.06,WeatherDisplay:10.37,2013-05-23 12:24:00,
2013-05-23 07:29:00,54.0,52.9,29.88,NNW,344,9.1,12.7,96,0.03,CLR,,0.06,WeatherDisplay:10.37,2013-05-23 12:29:00,
2013-05-23 07:34:00,53.9,52.8,29.88,North,5,8.0,11.5,96,0.03,CLR,,0.06,WeatherDisplay:10.37,2013-05-23 12:34:00,
2013-05-23 07:39:00,53.9,52.8,29.89,NNW,348,8.7,10.4,96,0.02,CLR,,0.06,WeatherDisplay:10.37,2013-05-23 12:39:00,
2013-05-23 07:44:00,53.9,52.8,29.89,NW,326,8.9,11.0,96,0.01,CLR,,0.06,WeatherDisplay:10.37,2013-05-23 12:44:00,
2013-05-23 07:50:00,54.0,52.9,29.89,North,5,8.6,12.7,96,0.01,CLR,,0.06,WeatherDisplay:10.37,2013-05-23 12:50:00,
2013-05-23 07:55:00,54.0,52.9,29.90,North,355,7.9,11.5,96,0.01,CLR,,0.06,WeatherDisplay:10.37,2013-05-23 12:55:00,
2013-05-23 08:00:00,54.0,52.9,29.90,North,355,7.8,11.5,96,0.01,CLR,,0.06,WeatherDisplay:10.37,2013-05-23 13:00:00,
2013-05-23 08:05:00,53.9,52.5,29.90,North,5,9.3,14.0,95,0.01,CLR,,0.06,WeatherDisplay:10.37,2013-05-23 13:05:00,
2013-05-23 08:10:00,53.9,52.8,29.91,North,355,8.8,11.5,96,0.00,CLR,,0.06,WeatherDisplay:10.37,2013-05-23 13:10:00,
2013-05-23 08:15:00,53.9,52.8,29.91,NNW,331,11.3,12.7,96,0.00,CLR,,0.06,WeatherDisplay:10.37,2013-05-23 13:15:00,
2013-05-23 08:20:00,53.8,52.4,29.92,North,351,9.6,12.7,95,0.00,CLR,,0.06,WeatherDisplay:10.37,2013-05-23 13:20:00,
2013-05-23 08:25:00,53.8,52.4,29.92,NNE,18,9.7,11.5,95,0.00,CLR,,0.06,WeatherDisplay:10.37,2013-05-23 13:25:00,
2013-05-23 08:30:00,53.4,52.0,29.92,NNW,331,9.6,11.5,95,0.00,CLR,,0.07,WeatherDisplay:10.37,2013-05-23 13:30:00,
2013-05-23 08:35:00,53.3,52.2,29.93,NNW,346,9.7,11.5,96,0.01,RA,,0.07,WeatherDisplay:10.37,2013-05-23 13:35:00,
2013-05-23 08:40:00,53.2,52.1,29.93,NNE,25,9.5,12.7,96,0.01,RA,,0.07,WeatherDisplay:10.37,2013-05-23 13:40:00,
2013-05-23 08:45:00,53.3,52.2,29.93,North,350,9.2,12.7,96,0.01,CLR,,0.07,WeatherDisplay:10.37,2013-05-23 13:45:00,
2013-05-23 08:50:00,53.4,52.3,29.94,NNE,23,8.8,12.7,96,0.01,CLR,,0.07,WeatherDisplay:10.37,2013-05-23 13:50:00,
2013-05-23 08:56:00,53.5,52.4,29.94,North,355,7.9,11.5,96,0.01,CLR,,0.07,WeatherDisplay:10.37,2013-05-23 13:56:00,
2013-05-23 09:01:00,53.6,52.5,29.95,North,10,8.6,12.7,96,0.02,RA,,0.08,WeatherDisplay:10.37,2013-05-23 14:01:00,
2013-05-23 09:06:00,53.5,52.4,29.95,NNW,336,11.1,15.0,96,0.02,RA,,0.08,WeatherDisplay:10.37,2013-05-23 14:06:00,
2013-05-23 09:11:00,53.1,52.0,29.95,NNW,331,11.7,17.3,96,0.02,,,0.08,WeatherDisplay:10.37,2013-05-23 14:11:00,
2013-05-23 09:16:00,53.1,52.0,29.95,North,355,12.2,17.3,96,0.03,RA,,0.09,WeatherDisplay:10.37,2013-05-23 14:16:00,
2013-05-23 09:21:00,52.9,51.8,29.95,North,351,11.4,15.0,96,0.03,RA,,0.09,WeatherDisplay:10.37,2013-05-23 14:21:00,
2013-05-23 09:26:00,53.0,51.9,29.96,NNW,340,17.7,23.0,96,0.03,CLR,,0.09,WeatherDisplay:10.37,2013-05-23 14:26:00,
2013-05-23 09:31:00,52.7,51.6,29.96,North,355,14.6,19.6,96,0.02,CLR,,0.09,WeatherDisplay:10.37,2013-05-23 14:31:00,
2013-05-23 09:36:00,53.3,52.5,29.96,NNW,328,11.1,13.8,97,0.02,CLR,,0.09,WeatherDisplay:10.37,2013-05-23 14:36:00,
2013-05-23 09:41:00,53.5,52.4,29.96,North,351,12.9,17.3,96,0.02,CLR,,0.09,WeatherDisplay:10.37,2013-05-23 14:41:00,
2013-05-23 09:46:00,53.4,52.3,29.97,NNW,333,12.6,17.3,96,0.02,CLR,,0.09,WeatherDisplay:10.37,2013-05-23 14:46:00,
2013-05-23 09:51:00,53.4,52.0,29.97,NNW,329,11.4,15.0,95,0.02,CLR,,0.09,WeatherDisplay:10.37,2013-05-23 14:51:00,
2013-05-23 09:56:00,53.2,51.8,29.98,NNW,344,11.4,14.0,95,0.02,CLR,,0.09,WeatherDisplay:10.37,2013-05-23 14:56:00,
2013-05-23 10:01:00,53.3,51.9,29.98,NNW,342,10.7,16.1,95,0.01,CLR,,0.09,WeatherDisplay:10.37,2013-05-23 15:01:00,
2013-05-23 10:06:00,53.0,51.3,29.98,NNW,344,14.6,19.6,94,0.01,CLR,,0.09,WeatherDisplay:10.37,2013-05-23 15:06:00,
2013-05-23 10:11:00,53.0,51.3,29.98,NNW,342,16.4,20.7,94,0.01,CLR,,0.09,WeatherDisplay:10.37,2013-05-23 15:11:00,
2013-05-23 10:16:00,53.7,52.0,29.98,NNW,342,14.7,20.0,94,0.00,CLR,,0.09,WeatherDisplay:10.37,2013-05-23 15:16:00,
2013-05-23 10:21:00,53.6,51.6,29.99,NNW,342,14.3,20.7,93,0.00,CLR,,0.09,WeatherDisplay:10.37,2013-05-23 15:21:00,
2013-05-23 10:26:00,53.1,50.8,29.99,NNW,328,15.9,19.6,92,0.00,CLR,,0.09,WeatherDisplay:10.37,2013-05-23 15:26:00,
2013-05-23 10:31:00,53.0,50.7,29.99,NNW,335,15.9,19.6,92,0.00,CLR,,0.09,WeatherDisplay:10.37,2013-05-23 15:31:00,
2013-05-23 10:36:00,53.4,51.4,29.99,NNW,333,15.0,19.6,93,0.00,CLR,,0.09,WeatherDisplay:10.37,2013-05-23 15:36:00,
2013-05-23 10:41:00,53.5,51.2,30.00,North,5,13.8,19.6,92,0.00,CLR,,0.09,WeatherDisplay:10.37,2013-05-23 15:41:00,
2013-05-23 10:46:00,54.0,51.7,30.00,North,349,13.5,20.7,92,0.00,CLR,,0.09,WeatherDisplay:10.37,2013-05-23 15:46:00,
2013-05-23 10:51:00,54.7,51.8,30.00,NNW,331,20.6,25.3,90,0.00,CLR,,0.09,WeatherDisplay:10.37,2013-05-23 15:51:00,
2013-05-23 10:56:00,54.9,51.7,30.00,North,350,14.3,21.9,89,0.00,CLR,,0.09,WeatherDisplay:10.37,2013-05-23 15:56:00,
2013-05-23 11:01:00,54.9,52.0,30.01,NNW,333,14.4,19.6,90,0.00,CLR,,0.09,WeatherDisplay:10.37,2013-05-23 16:01:00,
2013-05-23 11:06:00,53.9,50.7,30.01,NNW,348,14.0,17.3,89,0.00,CLR,,0.09,WeatherDisplay:10.37,2013-05-23 16:06:00,
2013-05-23 11:11:00,53.4,50.5,30.01,NNW,335,12.9,20.7,90,0.00,CLR,,0.09,WeatherDisplay:10.37,2013-05-23 16:11:00,
2013-05-23 11:16:00,53.5,50.6,30.02,NNW,336,17.2,21.0,90,0.00,CLR,,0.09,WeatherDisplay:10.37,2013-05-23 16:16:00,
2013-05-23 11:21:00,55.2,52.3,30.02,NNW,340,16.0,24.2,90,0.00,CLR,,0.09,WeatherDisplay:10.37,2013-05-23 16:21:00,
2013-05-23 11:26:00,55.4,51.6,30.02,NNW,348,18.0,21.9,87,0.00,CLR,,0.09,WeatherDisplay:10.37,2013-05-23 16:26:00,
2013-05-23 11:31:00,54.6,50.5,30.02,NW,319,18.1,20.7,86,0.00,CLR,,0.09,WeatherDisplay:10.37,2013-05-23 16:31:00,
2013-05-23 11:36:00,54.8,51.3,30.03,North,351,15.1,16.1,88,0.00,CLR,,0.09,WeatherDisplay:10.37,2013-05-23 16:36:00,
2013-05-23 11:41:00,55.0,51.5,30.03,NNW,340,11.3,21.9,88,0.00,CLR,,0.09,WeatherDisplay:10.37,2013-05-23 16:41:00,
2013-05-23 11:46:00,54.7,50.9,30.03,NNW,340,16.1,20.7,87,0.00,CLR,,0.09,WeatherDisplay:10.37,2013-05-23 16:46:00,
2013-05-23 11:51:00,54.6,51.1,30.03,NW,323,15.0,19.6,88,0.00,CLR,,0.09,WeatherDisplay:10.37,2013-05-23 16:51:00,
2013-05-23 11:56:00,55.0,51.2,30.04,NW,323,14.5,19.6,87,0.00,CLR,,0.09,WeatherDisplay:10.37,2013-05-23 16:56:00,
2013-05-23 12:01:00,56.2,52.4,30.04,North,360,13.5,15.0,87,0.00,CLR,,0.09,WeatherDisplay:10.37,2013-05-23 17:01:00,
2013-05-23 12:07:00,55.9,51.5,30.04,NNW,346,12.4,19.6,85,0.00,CLR,,0.09,WeatherDisplay:10.37,2013-05-23 17:07:00,
2013-05-23 12:12:00,55.1,51.3,30.04,NNW,339,13.7,19.6,87,0.00,CLR,,0.09,WeatherDisplay:10.37,2013-05-23 17:12:00,
2013-05-23 12:17:00,55.3,51.5,30.04,NNW,348,13.1,16.1,87,0.00,CLR,,0.09,WeatherDisplay:10.37,2013-05-23 17:17:00,
2013-05-23 12:22:00,56.0,51.9,30.05,NNW,342,11.2,16.0,86,0.00,CLR,,0.09,WeatherDisplay:10.37,2013-05-23 17:22:00,
2013-05-23 12:27:00,55.4,51.0,30.05,NNW,331,14.6,19.6,85,0.00,CLR,,0.09,WeatherDisplay:10.37,2013-05-23 17:27:00,
2013-05-23 12:32:00,54.8,50.7,30.05,NW,323,13.2,18.4,86,0.00,CLR,,0.09,WeatherDisplay:10.37,2013-05-23 17:32:00,
2013-05-23 12:37:00,55.2,51.4,30.05,NNW,344,14.4,19.6,87,0.00,CLR,,0.09,WeatherDisplay:10.37,2013-05-23 17:37:00,
2013-05-23 12:42:00,55.1,51.0,30.05,NNW,340,13.8,18.4,86,0.00,CLR,,0.09,WeatherDisplay:10.37,2013-05-23 17:42:00,
2013-05-23 12:47:00,55.1,51.0,30.06,NNW,336,14.6,19.6,86,0.00,CLR,,0.09,WeatherDisplay:10.37,2013-05-23 17:47:00,
2013-05-23 12:52:00,54.7,50.6,30.06,North,355,14.8,19.6,86,0.00,CLR,,0.09,WeatherDisplay:10.37,2013-05-23 17:52:00,
2013-05-23 12:57:00,55.0,50.9,30.06,NNW,330,12.9,16.1,86,0.00,CLR,,0.09,WeatherDisplay:10.37,2013-05-23 17:57:00,
2013-05-23 13:02:00,54.6,50.8,30.06,NNW,338,13.3,17.3,87,0.00,CLR,,0.09,WeatherDisplay:10.37,2013-05-23 18:02:00,
2013-05-23 13:07:00,55.1,51.3,30.06,NW,325,11.8,14.0,87,0.00,CLR,,0.09,WeatherDisplay:10.37,2013-05-23 18:07:00,
2013-05-23 13:12:00,55.3,51.2,30.07,NNW,342,13.1,16.1,86,0.00,CLR,,0.09,WeatherDisplay:10.37,2013-05-23 18:12:00,
2013-05-23 13:17:00,55.5,51.4,30.07,NNW,336,15.6,24.2,86,0.00,CLR,,0.09,WeatherDisplay:10.37,2013-05-23 18:17:00,
2013-05-23 13:22:00,55.4,50.6,30.06,NNW,346,16.1,19.6,84,0.00,CLR,,0.09,WeatherDisplay:10.37,2013-05-23 18:22:00,
2013-05-23 13:27:00,55.2,51.1,30.07,NNW,328,12.4,16.1,86,0.00,CLR,,0.09,WeatherDisplay:10.37,2013-05-23 18:27:00,
2013-05-23 13:32:00,55.3,50.9,30.07,NNW,330,14.1,20.7,85,0.00,CLR,,0.09,WeatherDisplay:10.37,2013-05-23 18:32:00,
2013-05-23 13:37:00,55.7,50.9,30.07,NNW,328,15.2,19.6,84,0.00,CLR,,0.09,WeatherDisplay:10.37,2013-05-23 18:37:00,
2013-05-23 13:42:00,56.2,51.7,30.07,North,360,11.7,16.1,85,0.00,CLR,,0.09,WeatherDisplay:10.37,2013-05-23 18:42:00,
2013-05-23 13:47:00,55.9,51.1,30.07,NNW,331,12.5,14.0,84,0.00,CLR,,0.09,WeatherDisplay:10.37,2013-05-23 18:47:00,
2013-05-23 13:52:00,55.8,50.7,30.07,NNW,337,14.1,19.6,83,0.00,CLR,,0.09,WeatherDisplay:10.37,2013-05-23 18:52:00,
2013-05-23 13:57:00,55.9,51.5,30.08,NNW,342,16.8,19.6,85,0.00,CLR,,0.09,WeatherDisplay:10.37,2013-05-23 18:57:00,
2013-05-23 14:02:00,55.6,50.8,30.08,NNW,344,11.0,18.4,84,0.00,CLR,,0.09,WeatherDisplay:10.37,2013-05-23 19:02:00,
2013-05-23 14:07:00,55.9,50.8,30.08,NNW,333,16.7,20.7,83,0.00,CLR,,0.09,WeatherDisplay:10.37,2013-05-23 19:07:00,
2013-05-23 14:12:00,56.3,50.9,30.08,North,9,12.7,19.6,82,0.00,CLR,,0.09,WeatherDisplay:10.37,2013-05-23 19:12:00,
2013-05-23 14:17:00,56.7,51.3,30.09,North,351,14.8,17.0,82,0.00,CLR,,0.09,WeatherDisplay:10.37,2013-05-23 19:17:00,
2013-05-23 14:22:00,56.1,50.0,30.09,NNE,31,16.1,20.7,80,0.00,CLR,,0.09,WeatherDisplay:10.37,2013-05-23 19:22:00,
2013-05-23 14:27:00,55.7,50.3,30.09,NNW,342,15.4,17.3,82,0.00,CLR,,0.09,WeatherDisplay:10.37,2013-05-23 19:27:00,
2013-05-23 14:32:00,55.3,49.9,30.10,North,11,14.5,20.7,82,0.00,CLR,,0.09,WeatherDisplay:10.37,2013-05-23 19:32:00,
2013-05-23 14:38:00,55.2,50.1,30.10,NNW,336,13.0,17.3,83,0.00,CLR,,0.09,WeatherDisplay:10.37,2013-05-23 19:38:00,
2013-05-23 14:43:00,55.3,50.5,30.11,NNW,341,10.2,12.7,84,0.00,CLR,,0.09,WeatherDisplay:10.37,2013-05-23 19:43:00,
2013-05-23 14:48:00,55.4,50.6,30.11,North,355,8.4,11.5,84,0.00,CLR,,0.09,WeatherDisplay:10.37,2013-05-23 19:48:00,
2013-05-23 14:53:00,55.0,50.3,30.12,NNW,329,10.0,13.8,84,0.00,CLR,,0.09,WeatherDisplay:10.37,2013-05-23 19:53:00,
2013-05-23 14:58:00,54.7,50.0,30.12,NNW,340,8.2,11.5,84,0.00,CLR,,0.09,WeatherDisplay:10.37,2013-05-23 19:58:00,
2013-05-23 15:03:00,54.9,50.5,30.12,NW,323,9.0,12.7,85,0.00,CLR,,0.09,WeatherDisplay:10.37,2013-05-23 20:03:00,
2013-05-23 15:08:00,55.4,50.6,30.12,NNW,336,8.7,10.4,84,0.00,CLR,,0.09,WeatherDisplay:10.37,2013-05-23 20:08:00,
2013-05-23 15:13:00,55.4,50.3,30.12,NNW,344,8.1,11.5,83,0.00,CLR,,0.09,WeatherDisplay:10.37,2013-05-23 20:13:00,
2013-05-23 15:18:00,55.6,50.8,30.12,NW,321,9.0,11.5,84,0.00,CLR,,0.09,WeatherDisplay:10.37,2013-05-23 20:18:00,
2013-05-23 15:23:00,55.9,50.5,30.12,NNW,347,10.3,13.8,82,0.00,CLR,,0.09,WeatherDisplay:10.37,2013-05-23 20:23:00,
2013-05-23 15:28:00,56.8,52.0,30.12,NNW,333,8.7,12.7,84,0.00,CLR,,0.09,WeatherDisplay:10.37,2013-05-23 20:28:00,
2013-05-23 15:33:00,57.1,51.0,30.12,North,351,10.5,13.8,80,0.00,CLR,,0.09,WeatherDisplay:10.37,2013-05-23 20:33:00,
2013-05-23 15:38:00,56.6,50.5,30.12,NNW,341,9.8,13.8,80,0.00,CLR,,0.09,WeatherDisplay:10.37,2013-05-23 20:38:00,
2013-05-23 15:43:00,56.7,50.9,30.12,North,5,12.2,15.0,81,0.00,CLR,,0.09,WeatherDisplay:10.37,2013-05-23 20:43:00,
2013-05-23 15:48:00,56.8,51.0,30.13,North,5,12.0,15.0,81,0.00,CLR,,0.09,WeatherDisplay:10.37,2013-05-23 20:48:00,
2013-05-23 15:53:00,56.7,50.9,30.13,NNW,337,8.3,11.5,81,0.00,CLR,,0.09,WeatherDisplay:10.37,2013-05-23 20:53:00,
2013-05-23 15:58:00,57.0,50.9,30.13,NNW,344,7.3,9.2,80,0.00,CLR,,0.09,WeatherDisplay:10.37,2013-05-23 20:58:00,
2013-05-23 16:03:00,57.7,51.9,30.13,NNW,327,12.2,15.0,81,0.00,CLR,,0.09,WeatherDisplay:10.37,2013-05-23 21:03:00,
2013-05-23 16:08:00,57.4,50.6,30.13,NNW,346,12.8,17.3,78,0.00,CLR,,0.09,WeatherDisplay:10.37,2013-05-23 21:08:00,
2013-05-23 16:13:00,58.2,52.4,30.13,NNW,336,11.1,15.0,81,0.00,CLR,,0.09,WeatherDisplay:10.37,2013-05-23 21:13:00,
2013-05-23 16:18:00,58.4,51.9,30.13,NNW,348,10.9,16.1,79,0.00,CLR,,0.09,WeatherDisplay:10.37,2013-05-23 21:18:00,
2013-05-23 16:23:00,57.9,50.0,30.13,North,5,8.2,11.5,75,0.00,CLR,,0.09,WeatherDisplay:10.37,2013-05-23 21:23:00,
2013-05-23 16:28:00,58.1,50.9,30.13,NNW,331,8.1,11.5,77,0.00,CLR,,0.09,WeatherDisplay:10.37,2013-05-23 21:28:00,
2013-05-23 16:33:00,58.6,50.3,30.13,NNW,333,6.8,11.5,74,0.00,CLR,,0.09,WeatherDisplay:10.37,2013-05-23 21:33:00,
2013-05-23 16:38:00,59.3,52.1,30.14,NNW,334,10.8,13.0,77,0.00,CLR,,0.09,WeatherDisplay:10.37,2013-05-23 21:38:00,
2013-05-23 16:43:00,59.4,50.7,30.14,NW,317,7.5,11.5,73,0.00,CLR,,0.09,WeatherDisplay:10.37,2013-05-23 21:43:00,
2013-05-23 16:48:00,59.7,51.4,30.14,North,360,9.6,15.0,74,0.00,CLR,,0.09,WeatherDisplay:10.37,2013-05-23 21:48:00,
2013-05-23 16:53:00,59.6,50.6,30.14,NNW,339,8.6,11.5,72,0.00,CLR,,0.09,WeatherDisplay:10.37,2013-05-23 21:53:00,
2013-05-23 16:58:00,59.2,50.9,30.14,North,355,10.0,11.5,74,0.00,CLR,,0.09,WeatherDisplay:10.37,2013-05-23 21:58:00,
2013-05-23 17:03:00,59.1,51.5,30.14,NNW,344,7.2,10.4,76,0.00,CLR,,0.09,WeatherDisplay:10.37,2013-05-23 22:03:00,
2013-05-23 17:08:00,58.5,50.6,30.14,North,355,10.6,12.7,75,0.00,CLR,,0.09,WeatherDisplay:10.37,2013-05-23 22:08:00,
2013-05-23 17:13:00,58.0,50.1,30.14,NNW,345,9.5,13.8,75,0.00,CLR,,0.09,WeatherDisplay:10.37,2013-05-23 22:13:00,
2013-05-23 17:18:00,57.9,50.4,30.14,NNW,343,6.5,10.4,76,0.00,CLR,,0.09,WeatherDisplay:10.37,2013-05-23 22:18:00,
2013-05-23 17:23:00,58.9,51.0,30.15,North,360,7.9,11.5,75,0.00,CLR,,0.09,WeatherDisplay:10.37,2013-05-23 22:23:00,
2013-05-23 17:28:00,59.5,51.2,30.15,NNW,348,8.4,10.4,74,0.00,CLR,,0.09,WeatherDisplay:10.37,2013-05-23 22:28:00,
2013-05-23 17:33:00,59.3,51.4,30.15,NNW,341,10.0,11.5,75,0.00,CLR,,0.09,WeatherDisplay:10.37,2013-05-23 22:33:00,
2013-05-23 17:38:00,58.9,50.3,30.15,NNE,13,8.5,10.4,73,0.00,CLR,,0.09,WeatherDisplay:10.37,2013-05-23 22:38:00,
2013-05-23 17:43:00,58.7,51.2,30.15,NNE,12,7.5,10.4,76,0.00,CLR,,0.09,WeatherDisplay:10.37,2013-05-23 22:43:00,
2013-05-23 17:48:00,58.8,50.9,30.16,North,360,10.0,13.8,75,0.00,CLR,,0.09,WeatherDisplay:10.37,2013-05-23 22:48:00,
2013-05-23 17:53:00,58.6,50.7,30.16,North,355,8.7,11.0,75,0.00,CLR,,0.09,WeatherDisplay:10.37,2013-05-23 22:53:00,
2013-05-23 17:58:00,58.6,50.3,30.16,North,360,5.8,9.2,74,0.00,CLR,,0.09,WeatherDisplay:10.37,2013-05-23 22:58:00,
2013-05-23 18:03:00,58.4,50.1,30.16,North,355,8.5,15.0,74,0.00,CLR,,0.09,WeatherDisplay:10.37,2013-05-23 23:03:00,
2013-05-23 18:09:00,58.3,50.4,30.16,North,10,10.6,15.0,75,0.00,CLR,,0.09,WeatherDisplay:10.37,2013-05-23 23:09:00,
2013-05-23 18:14:00,58.3,50.0,30.16,NW,315,7.8,9.2,74,0.00,CLR,,0.09,WeatherDisplay:10.37,2013-05-23 23:14:00,
2013-05-23 18:19:00,59.0,50.7,30.17,North,9,7.0,10.4,74,0.00,CLR,,0.09,WeatherDisplay:10.37,2013-05-23 23:19:00,
2013-05-23 18:24:00,58.7,50.4,30.17,NNW,340,7.3,11.5,74,0.00,CLR,,0.09,WeatherDisplay:10.37,2013-05-23 23:24:00,
2013-05-23 18:29:00,58.4,49.8,30.17,North,350,7.1,10.4,73,0.00,CLR,,0.09,WeatherDisplay:10.37,2013-05-23 23:29:00,
2013-05-23 18:34:00,58.4,49.8,30.17,North,360,6.6,11.5,73,0.00,CLR,,0.09,WeatherDisplay:10.37,2013-05-23 23:34:00,
2013-05-23 18:39:00,58.4,49.4,30.17,North,355,6.7,9.2,72,0.00,CLR,,0.09,WeatherDisplay:10.37,2013-05-23 23:39:00,
2013-05-23 18:44:00,58.4,49.4,30.17,North,349,7.5,9.2,72,0.00,CLR,,0.09,WeatherDisplay:10.37,2013-05-23 23:44:00,
2013-05-23 18:49:00,58.3,48.9,30.17,NNW,348,8.6,11.5,71,0.00,CLR,,0.09,WeatherDisplay:10.37,2013-05-23 23:49:00,
2013-05-23 18:54:00,58.2,48.5,30.17,NNE,15,8.8,12.7,70,0.00,CLR,,0.09,WeatherDisplay:10.37,2013-05-23 23:54:00,
2013-05-23 18:59:00,58.2,48.8,30.17,North,5,10.7,15.0,71,0.00,CLR,,0.09,WeatherDisplay:10.37,2013-05-23 23:59:00,
2013-05-23 19:04:00,58.0,48.6,30.18,NNW,346,8.9,12.7,71,0.00,CLR,,0.09,WeatherDisplay:10.37,2013-05-24 00:04:00,
2013-05-23 19:09:00,57.9,48.6,30.18,North,5,7.5,12.7,71,0.00,CLR,,0.09,WeatherDisplay:10.37,2013-05-24 00:09:00,
2013-05-23 19:14:00,57.6,48.6,30.18,North,360,7.7,11.5,72,0.00,CLR,,0.09,WeatherDisplay:10.37,2013-05-24 00:14:00,
2013-05-23 19:19:00,57.4,49.2,30.18,NNE,13,8.2,10.0,74,0.00,CLR,,0.09,WeatherDisplay:10.37,2013-05-24 00:19:00,
2013-05-23 19:24:00,57.1,48.9,30.18,NNW,342,8.0,9.2,74,0.00,CLR,,0.09,WeatherDisplay:10.37,2013-05-24 00:24:00,
2013-05-23 19:29:00,56.9,48.3,30.18,North,355,8.6,11.5,73,0.00,CLR,,0.09,WeatherDisplay:10.37,2013-05-24 00:29:00,
2013-05-23 19:34:00,56.6,48.4,30.19,NW,313,6.7,10.4,74,0.00,CLR,,0.09,WeatherDisplay:10.37,2013-05-24 00:34:00,
2013-05-23 19:39:00,56.3,48.5,30.18,North,5,6.5,10.4,75,0.00,CLR,,0.09,WeatherDisplay:10.37,2013-05-24 00:39:00,
2013-05-23 19:44:00,56.0,48.2,30.19,NNW,346,6.2,9.2,75,0.00,CLR,,0.09,WeatherDisplay:10.37,2013-05-24 00:44:00,
2013-05-23 19:49:00,55.7,47.9,30.19,North,349,5.5,9.2,75,0.00,CLR,,0.09,WeatherDisplay:10.37,2013-05-24 00:49:00,
2013-05-23 19:54:00,55.3,48.2,30.19,North,355,5.9,8.1,77,0.00,CLR,,0.09,WeatherDisplay:10.37,2013-05-24 00:54:00,
2013-05-23 19:59:00,54.9,47.5,30.19,North,351,7.1,9.2,76,0.00,CLR,,0.09,WeatherDisplay:10.37,2013-05-24 00:59:00,
2013-05-23 20:04:00,54.6,47.2,30.19,North,5,6.6,9.2,76,0.00,CLR,,0.09,WeatherDisplay:10.37,2013-05-24 01:04:00,
2013-05-23 20:09:00,54.2,47.1,30.19,North,355,4.2,5.0,77,0.00,CLR,,0.09,WeatherDisplay:10.37,2013-05-24 01:09:00,
2013-05-23 20:14:00,53.8,47.1,30.19,North,355,5.3,6.9,78,0.00,CLR,,0.09,WeatherDisplay:10.37,2013-05-24 01:14:00,
2013-05-23 20:19:00,53.4,47.0,30.19,North,5,3.3,6.9,79,0.00,CLR,,0.09,WeatherDisplay:10.37,2013-05-24 01:19:00,
2013-05-23 20:24:00,53.2,46.9,30.19,North,351,5.1,8.1,79,0.00,CLR,,0.09,WeatherDisplay:10.37,2013-05-24 01:24:00,
2013-05-23 20:29:00,52.7,46.7,30.20,North,5,5.6,6.9,80,0.00,CLR,,0.09,WeatherDisplay:10.37,2013-05-24 01:29:00,
2013-05-23 20:34:00,52.3,46.6,30.20,North,5,5.6,6.9,81,0.00,CLR,,0.09,WeatherDisplay:10.37,2013-05-24 01:34:00,
2013-05-23 20:39:00,52.3,46.6,30.20,North,350,4.6,5.8,81,0.00,CLR,,0.09,WeatherDisplay:10.37,2013-05-24 01:39:00,
2013-05-23 20:44:00,52.1,46.4,30.20,NNE,19,3.4,5.0,81,0.00,CLR,,0.09,WeatherDisplay:10.37,2013-05-24 01:44:00,
2013-05-23 20:49:00,51.8,46.5,30.21,North,360,2.6,3.5,82,0.00,CLR,,0.09,WeatherDisplay:10.37,2013-05-24 01:49:00,
2013-05-23 20:54:00,51.4,46.1,30.21,North,5,3.1,3.5,82,0.00,CLR,,0.09,WeatherDisplay:10.37,2013-05-24 01:54:00,
2013-05-23 20:59:00,51.0,46.0,30.21,North,11,3.2,5.0,83,0.00,CLR,,0.09,WeatherDisplay:10.37,2013-05-24 01:59:00,
2013-05-23 21:04:00,50.8,46.1,30.21,North,11,4.3,4.6,84,0.00,CLR,,0.09,WeatherDisplay:10.37,2013-05-24 02:04:00,
2013-05-23 21:09:00,50.6,45.9,30.21,North,5,4.1,5.8,84,0.00,CLR,,0.09,WeatherDisplay:10.37,2013-05-24 02:09:00,
2013-05-23 21:14:00,50.6,45.9,30.21,North,355,4.9,6.9,84,0.00,CLR,,0.09,WeatherDisplay:10.37,2013-05-24 02:14:00,
2013-05-23 21:19:00,50.6,45.9,30.22,North,355,4.4,4.6,84,0.00,CLR,,0.09,WeatherDisplay:10.37,2013-05-24 02:19:00,
2013-05-23 21:24:00,50.6,45.6,30.22,North,360,3.7,5.0,83,0.00,CLR,,0.09,WeatherDisplay:10.37,2013-05-24 02:24:00,
2013-05-23 21:29:00,50.5,45.8,30.22,North,360,4.8,6.9,84,0.00,CLR,,0.09,WeatherDisplay:10.37,2013-05-24 02:29:00,
2013-05-23 21:34:00,50.4,45.7,30.22,North,360,4.7,5.8,84,0.00,CLR,,0.09,WeatherDisplay:10.37,2013-05-24 02:34:00,
2013-05-23 21:39:00,50.3,45.6,30.23,North,5,4.1,5.8,84,0.00,CLR,,0.09,WeatherDisplay:10.37,2013-05-24 02:39:00,
2013-05-23 21:44:00,50.1,45.5,30.23,North,360,2.9,4.6,84,0.00,CLR,,0.09,WeatherDisplay:10.37,2013-05-24 02:44:00,
2013-05-23 21:49:00,50.0,45.7,30.23,NNE,15,0.9,2.3,85,0.00,CLR,,0.09,WeatherDisplay:10.37,2013-05-24 02:49:00,
2013-05-23 21:54:00,49.5,45.5,30.24,NNE,24,0.8,2.3,86,0.00,CLR,,0.09,WeatherDisplay:10.37,2013-05-24 02:54:00,
2013-05-23 21:59:00,48.9,45.2,30.24,NNE,32,0.4,1.2,87,0.00,CLR,,0.09,WeatherDisplay:10.37,2013-05-24 02:59:00,
2013-05-23 22:04:00,48.3,44.9,30.24,ENE,61,2.1,5.0,88,0.00,CLR,,0.09,WeatherDisplay:10.37,2013-05-24 03:04:00,
2013-05-23 22:09:00,47.9,44.8,30.24,ENE,67,1.6,3.5,89,0.00,CLR,,0.09,WeatherDisplay:10.37,2013-05-24 03:09:00,
2013-05-23 22:14:00,47.6,44.8,30.24,NE,45,1.3,3.5,90,0.00,CLR,,0.09,WeatherDisplay:10.37,2013-05-24 03:14:00,
2013-05-23 22:19:00,47.7,45.2,30.24,NE,36,2.2,4.6,91,0.00,CLR,,0.09,WeatherDisplay:10.37,2013-05-24 03:19:00,
2013-05-23 22:24:00,47.8,45.3,30.25,ENE,63,1.5,3.5,91,0.00,CLR,,0.09,WeatherDisplay:10.37,2013-05-24 03:24:00,
2013-05-23 22:29:00,47.7,45.2,30.25,North,11,2.3,4.6,91,0.00,CLR,,0.09,WeatherDisplay:10.37,2013-05-24 03:29:00,
2013-05-23 22:34:00,47.4,44.9,30.25,ENE,70,1.4,3.5,91,0.00,CLR,,0.09,WeatherDisplay:10.37,2013-05-24 03:34:00,
2013-05-23 22:39:00,47.0,44.5,30.25,ENE,60,2.1,3.5,91,0.00,CLR,,0.09,WeatherDisplay:10.37,2013-05-24 03:39:00,
2013-05-23 22:44:00,46.6,44.1,30.25,ENE,67,3.8,5.8,91,0.00,CLR,,0.09,WeatherDisplay:10.37,2013-05-24 03:44:00,
2013-05-23 22:49:00,46.3,43.8,30.25,NE,50,2.6,3.5,91,0.00,CLR,,0.09,WeatherDisplay:10.37,2013-05-24 03:49:00,
2013-05-23 22:54:00,46.0,43.5,30.25,NE,51,2.7,5.8,91,0.00,CLR,,0.09,WeatherDisplay:10.37,2013-05-24 03:54:00,
2013-05-23 22:59:00,45.7,43.5,30.25,ENE,59,1.3,5.8,92,0.00,CLR,,0.09,WeatherDisplay:10.37,2013-05-24 03:59:00,
2013-05-23 23:01:00,45.6,43.4,30.25,NE,51,2.9,4.0,92,0.00,CLR,,0.09,WeatherDisplay:10.37,2013-05-24 04:01:00,
2013-05-23 23:02:00,45.6,43.4,30.25,ENE,67,3.6,5.8,92,0.00,CLR,,0.09,WeatherDisplay:10.37,2013-05-24 04:02:00,
2013-05-23 23:07:00,45.5,43.3,30.25,ENE,62,2.5,3.5,92,0.00,CLR,,0.09,WeatherDisplay:10.37,2013-05-24 04:07:00,
2013-05-23 23:12:00,45.3,43.1,30.25,NE,52,5.4,8.1,92,0.00,CLR,,0.09,WeatherDisplay:10.37,2013-05-24 04:12:00,
2013-05-23 23:17:00,45.3,43.1,30.25,ENE,58,5.0,9.2,92,0.00,CLR,,0.09,WeatherDisplay:10.37,2013-05-24 04:17:00,
2013-05-23 23:22:00,45.2,43.0,30.26,NE,46,4.4,6.9,92,0.00,CLR,,0.09,WeatherDisplay:10.37,2013-05-24 04:22:00,
2013-05-23 23:27:00,45.0,42.8,30.26,ENE,60,1.9,3.5,92,0.00,CLR,,0.09,WeatherDisplay:10.37,2013-05-24 04:27:00,
2013-05-23 23:32:00,44.8,42.6,30.26,ENE,67,2.9,4.0,92,0.00,CLR,,0.09,WeatherDisplay:10.37,2013-05-24 04:32:00,
2013-05-23 23:37:00,44.5,42.3,30.26,NE,56,3.6,8.1,92,0.00,CLR,,0.09,WeatherDisplay:10.37,2013-05-24 04:37:00,
2013-05-23 23:42:00,44.2,42.0,30.27,NE,49,2.5,4.0,92,0.00,CLR,,0.09,WeatherDisplay:10.37,2013-05-24 04:42:00,
2013-05-23 23:47:00,44.0,41.8,30.27,ENE,62,2.8,5.8,92,0.00,CLR,,0.09,WeatherDisplay:10.37,2013-05-24 04:47:00,
2013-05-23 23:52:00,43.9,41.7,30.27,ENE,71,2.4,4.6,92,0.00,CLR,,0.09,WeatherDisplay:10.37,2013-05-24 04:52:00,
2013-05-23 23:57:00,43.6,41.4,30.27,NE,50,0.9,3.5,92,0.00,CLR,,0.09,WeatherDisplay:10.37,2013-05-24 04:57:00,